sat.trackr.live / text

‹ back to catalog

MATS

NORAD 54227 · 2022-147A

PAYLOAD ACTIVE UNKNOWN

§ Identity

Operator
Country
SWED
Launch date
2022-11-04
Launch site
RLLB
Launch vehicle
Mass (kg)
RCS (m²)

External: N2YO · Heavens-Above · Gunter

§ Orbital elements

Epoch: 2026-09-20T22:50:29.060736Z

Period
95.63 min
Inclination
97.6884°
Eccentricity
0.0011184
Mean motion
15.05796377 rev/d
Perigee alt
541.3 km
Apogee alt
556.8 km
Semi-major
6,927.2 km
B*
1.4849e-4
RAAN
265.1919°
Arg perigee
230.3066°
Mean anomaly
129.7176°
Rev number
21,217

§ Raw data

MATS1 54227U 22147A   26263.95172524  .00002091  00000+0  14849-3 0  99902 54227  97.6884 265.1919 0011184 230.3066 129.7176 15.05796377212178

JSON: /api/v1/satellites/54227 · /tle

For live sub-satellite position, see the globe view (requires WebGL).

§ Visibility from observer

Set your observer location to see the next 7 days of passes ≥ 10°. The values pass through the URL so the page stays shareable.

No JS? Fill the form by hand. The geolocation button needs JavaScript.

§ Radio — SatNOGS DB

ModeDescriptionDownlinkUplink
OQPSK S-Band OQPSK 2.214 GHz

1 transmitter · refreshed weekly from db.satnogs.org